Wind_Speed
18 18 19 20 20 21 20 20 19 20 20 19 19 19 19 19 19 18 17 16 16 17 18 19 20 21 21 22 21 21 21 21 21 20 18 16 14 14 14 14 14 13 12 12 11 11 11 11 11 11 11 12 11 11 11 9 8 8 8 7 7 7 7 7 7 6 6 5 4 4 5 5 3 3 1 0 1 1 1 1 2 3 3 3 3
17 18 19 21 21 21 21 20 20 20 20 20 19 19 19 19 19 18 18 17 16 17 18 19 20 20 21 21 21 21 21 21 21 20 19 16 15 14 14 14 14 12 12 11 11 11 11 11 11 12 12 12 11 10 10 10 9 9 8 7 7 7 6 6 6 6 6 6 5 4 5 5 5 4 2 2 1 1 0 1 2 2 2 2 2
18 18 20 21 22 22 21 21 21 21 21 20 20 19 19 19 19 18 18 17 16 17 17 18 19 20 20 21 21 21 21 22 21 21 19 17 15 14 14 14 13 12 11 11 11 11 11 11 11 11 11 11 11 10 9 9 9 8 7 7 6 5 5 5 4 5 5 5 5 5 4 4 4 3 2 2 1 1 0 2 2 2 2 2 3
18 19 20 21 22 22 22 21 21 21 20 20 19 19 19 19 19 18 18 17 16 16 17 17 18 19 20 20 21 21 22 22 22 22 20 18 15 13 13 13 13 12 12 12 11 12 11 11 11 11 11 11 10 10 9 8 7 6 5 5 5 5 5 5 5 5 5 4 4 4 3 3 3 2 1 2 1 1 1 2 2 3 3 2 3
18 19 20 21 22 22 22 22 21 21 20 20 19 19 19 18 19 18 17 16 16 16 17 17 18 19 19 20 21 22 22 23 23 22 21 18 15 12 12 13 12 12 12 12 12 12 12 11 11 11 11 10 9 8 7 6 5 4 4 5 5 6 6 6 6 5 5 4 4 4 3 2 2 2 1 2 2 1 1 2 2 2 2 3 3
18 19 20 21 21 22 22 22 21 21 20 20 19 19 19 18 18 18 16 16 16 16 16 17 18 18 19 20 21 22 22 23 23 22 20 18 14 12 12 13 13 12 12 12 12 12 12 12 12 11 10 9 8 7 6 5 4 4 5 5 6 6 7 6 6 5 5 4 4 4 3 2 2 1 2 2 2 1 1 1 2 2 2 2 2
19 19 20 20 21 22 22 22 21 20 20 19 19 19 18 18 18 17 16 15 16 16 16 17 18 18 19 20 21 22 22 23 23 22 21 18 14 12 12 12 13 13 12 12 12 12 12 12 12 11 10 9 8 7 6 6 5 5 5 5 5 6 6 5 5 5 4 4 4 4 3 2 1 1 1 2 2 2 2 2 2 2 1 2 2
18 18 19 20 21 21 21 21 20 20 19 18 18 18 18 18 17 16 15 15 15 16 16 17 18 18 19 19 20 22 22 23 24 23 21 18 14 12 11 12 13 13 13 12 12 13 13 12 12 11 10 9 8 7 6 5 5 5 4 4 5 5 6 5 5 5 4 4 4 3 2 1 1 1 1 2 2 2 2 2 2 1 1 1 1
18 18 18 18 19 19 19 19 19 18 18 17 17 17 17 17 16 15 15 15 15 16 17 17 18 18 19 20 20 21 23 24 24 23 22 19 14 11 11 12 13 13 13 12 12 13 13 12 11 10 9 8 8 7 6 5 5 4 4 4 5 5 6 6 6 5 4 3 3 3 2 1 1 1 1 2 3 3 3 2 2 1 1 0 1
19 18 18 18 18 19 18 18 17 17 16 16 16 16 16 16 15 14 14 14 15 16 17 17 17 18 19 20 20 21 23 24 24 23 22 19 14 11 11 12 13 13 13 12 12 12 13 12 11 10 9 8 7 7 6 5 4 4 4 3 4 5 6 6 6 5 4 3 2 3 2 2 1 1 2 2 3 4 4 4 3 2 1 1 0
20 20 20 19 19 19 18 17 16 15 14 15 15 15 15 15 15 14 13 13 15 16 17 17 17 18 19 20 21 21 23 24 24 23 22 19 13 10 11 12 13 13 13 12 11 12 12 12 11 9 8 7 6 5 4 4 4 3 3 4 5 5 6 6 6 5 4 2 2 2 2 2 2 2 2 3 4 4 5 4 4 3 2 2 2
20 20 20 20 19 19 17 16 14 14 14 14 14 14 14 14 14 13 12 13 15 17 17 17 17 18 19 20 20 21 23 24 24 23 21 18 13 10 11 12 12 13 12 12 11 11 11 11 10 9 7 6 5 4 4 4 3 3 3 4 5 6 6 6 6 5 3 2 1 2 2 2 2 3 3 4 4 5 5 5 4 3 3 3 3
20 20 19 18 18 17 16 15 14 13 13 13 13 13 14 14 13 12 12 14 17 17 17 16 17 18 19 20 21 22 23 24 24 23 21 18 13 10 10 12 12 12 11 11 11 10 11 11 10 9 7 6 4 4 4 4 4 4 4 4 5 5 6 6 6 4 3 1 1 1 2 3 4 4 4 5 5 6 6 5 5 5 5 5 5
20 20 19 18 18 18 17 15 14 13 12 12 12 13 13 13 12 12 13 16 17 17 17 17 17 18 19 20 21 22 23 23 23 22 20 17 13 10 10 11 11 11 10 10 10 10 10 10 10 9 8 6 5 4 4 4 4 4 4 5 5 6 6 6 5 3 2 2 1 1 2 3 4 5 5 6 6 6 6 6 6 6 6 6 6
20 20 19 17 17 18 18 16 14 12 12 12 12 12 13 13 12 12 15 17 18 18 17 18 18 18 20 21 21 21 22 23 22 21 20 16 12 10 10 11 11 10 10 10 10 10 10 10 10 9 8 7 6 5 5 5 5 5 6 6 6 7 7 6 5 3 2 2 1 2 3 4 5 5 6 6 7 7 7 7 7 7 7 7 7
18 18 17 16 17 18 18 17 15 14 13 12 12 13 13 13 12 14 16 17 18 19 18 18 19 19 21 22 22 21 21 22 21 20 18 15 12 10 10 10 10 10 9 9 9 9 10 10 10 9 8 7 6 6 6 6 6 6 7 7 7 7 6 6 5 4 3 2 2 2 3 4 5 5 6 7 7 7 8 8 7 7 8 8 7
18 18 18 18 20 21 20 19 18 16 15 14 14 14 14 14 14 15 17 19 19 19 18 19 20 21 22 23 22 21 21 21 20 18 17 14 11 10 11 10 10 10 10 9 9 9 9 10 10 9 8 7 6 6 6 6 6 7 7 7 6 6 6 6 5 4 3 3 3 3 4 5 5 5 6 7 7 8 8 8 8 8 8 8 8
18 19 20 20 21 23 22 20 20 18 16 15 14 14 14 14 15 17 18 19 19 19 19 20 21 23 24 24 23 22 21 20 19 17 16 14 12 10 11 11 11 11 10 10 9 9 9 9 10 9 8 7 7 6 5 5 6 7 7 6 5 6 6 6 5 5 4 4 4 4 4 5 5 6 6 7 7 8 8 8 8 9 9 9 9
19 20 21 21 21 20 19 19 19 18 16 14 13 13 13 13 15 17 18 18 18 19 20 21 23 25 26 25 24 23 22 21 19 17 15 14 12 11 11 12 12 11 11 10 10 9 9 10 11 11 9 8 8 7 5 5 6 7 7 6 5 6 7 6 6 6 6 5 5 5 5 5 6 6 7 7 7 7 8 8 8 9 9 9 9
19 20 22 22 21 19 18 17 18 18 17 15 14 13 12 13 15 16 17 18 19 20 22 23 24 25 26 25 24 24 23 22 20 17 14 13 12 11 11 13 13 12 11 10 10 10 9 10 11 12 10 9 9 7 4 5 7 7 7 6 6 7 8 7 7 7 7 7 6 6 6 6 7 7 7 7 7 7 8 8 8 9 9 10 10
19 20 22 23 22 21 19 17 17 18 17 15 14 13 13 14 15 16 18 19 20 22 23 24 24 25 25 25 24 24 23 22 20 16 14 13 13 12 11 13 13 12 11 10 10 9 9 10 11 12 11 11 11 8 6 8 8 8 7 7 7 8 8 8 7 8 8 8 7 7 7 8 8 8 8 8 8 8 8 8 9 9 9 10 10
20 21 23 24 23 22 19 17 16 16 15 14 13 13 13 14 14 15 15 16 17 20 22 23 23 23 23 24 23 23 23 21 19 17 14 13 13 12 12 13 14 13 11 10 9 8 8 9 11 12 12 13 12 9 9 10 10 9 7 7 7 8 8 8 8 9 9 9 8 8 8 8 8 8 8 9 9 9 10 9 9 10 10 10 10
21 21 22 23 23 21 18 15 14 14 13 13 13 13 12 12 10 10 10 12 14 17 19 20 21 21 22 22 22 22 22 20 18 17 15 14 13 13 12 13 14 13 12 10 9 7 6 8 10 11 12 14 13 10 11 12 11 9 7 6 7 8 9 9 9 9 10 9 9 9 9 9 9 9 9 9 10 10 10 10 10 11 11 11 11
23 22 21 22 22 21 17 15 14 13 12 11 12 13 13 12 9 8 12 15 15 15 17 19 19 20 20 20 21 21 20 18 18 18 16 15 14 13 13 13 14 14 13 11 9 7 6 7 8 11 13 14 13 11 12 12 11 9 6 6 7 8 9 10 9 9 10 10 10 10 9 9 9 10 10 10 10 10 11 11 11 11 11 12 12
23 23 21 20 21 21 19 16 14 14 13 12 12 12 12 14 13 14 15 14 14 15 16 18 19 19 19 19 19 19 18 17 18 19 18 16 15 15 14 14 14 14 13 11 9 7 6 6 7 10 13 15 13 11 12 13 12 11 8 8 8 8 9 10 10 9 9 10 9 9 10 9 9 10 10 10 10 10 11 12 12 12 12 12 12
24 23 21 19 19 20 19 17 15 14 14 14 13 12 12 15 18 18 14 13 14 15 17 17 18 19 19 19 18 17 17 17 19 20 19 17 17 16 15 14 14 14 12 10 9 8 7 6 7 10 13 14 13 11 12 13 13 12 11 9 8 8 8 9 9 9 8 9 9 9 10 10 10 10 11 11 11 11 11 12 12 13 13 13 13
25 22 20 18 18 19 19 17 14 13 13 14 14 14 15 17 19 19 17 16 16 16 18 18 18 19 20 19 19 19 18 19 21 21 19 18 17 17 16 14 14 13 12 11 10 9 8 7 7 10 13 13 13 11 12 14 13 12 11 9 8 8 8 8 8 9 8 9 10 11 11 11 11 11 11 12 12 12 12 12 13 13 13 14 14
25 22 19 17 17 18 18 16 14 12 12 14 14 15 18 19 19 19 18 18 18 19 20 20 18 19 21 21 21 21 20 21 22 21 19 18 18 18 17 15 15 14 14 12 11 10 9 8 7 10 12 13 13 12 13 14 13 12 12 10 8 8 7 6 7 9 10 10 11 12 13 13 13 13 13 13 13 13 13 13 13 13 14 14 14
24 22 19 17 16 17 17 15 13 12 12 13 14 15 17 18 17 17 17 18 18 20 21 21 20 19 21 22 22 22 22 21 21 20 19 19 19 18 17 16 16 16 16 15 13 12 11 9 8 9 12 14 14 13 13 14 12 11 11 10 9 8 8 7 7 8 10 12 12 13 13 14 15 16 15 14 14 13 13 14 14 14 14 14 15
24 22 20 17 16 16 16 14 12 11 11 13 14 15 16 16 16 17 18 19 20 21 22 23 22 21 21 22 24 23 22 21 21 20 19 19 19 19 18 18 17 17 17 16 14 13 12 11 9 10 12 14 14 13 12 12 11 10 11 11 10 9 9 8 8 8 10 11 13 13 14 14 15 16 16 16 16 15 14 14 14 14 14 15 15
24 21 19 17 15 15 14 13 11 11 12 13 14 15 15 16 17 18 19 20 22 23 23 24 23 23 22 23 24 24 23 22 22 21 20 19 19 19 19 19 19 18 18 18 16 14 13 12 11 11 12 14 13 12 11 11 10 11 11 10 9 9 9 9 9 9 9 10 12 13 14 15 14 14 15 15 16 16 16 15 14 14 14 15 15
23 20 19 16 15 14 13 12 12 12 13 14 15 15 15 16 17 18 20 21 22 24 24 24 24 23 23 23 24 24 24 23 23 22 20 20 19 19 19 19 20 20 19 18 16 14 14 13 12 12 12 13 13 11 10 10 10 11 12 11 9 9 9 9 9 9 9 10 11 13 14 14 14 14 14 15 15 16 16 15 14 14 14 15 15
21 19 18 16 15 14 13 13 13 14 15 15 15 14 14 15 16 18 20 22 23 25 26 25 25 24 23 23 24 24 24 24 24 23 22 21 20 19 19 19 20 19 18 18 16 15 15 14 13 12 12 12 12 9 8 9 9 11 11 11 9 8 9 9 9 9 10 10 11 12 14 15 14 14 14 14 14 14 14 14 13 13 13 14 15
20 18 17 16 16 15 15 15 16 16 16 16 15 14 14 15 16 18 20 22 24 25 27 27 26 25 24 24 24 24 24 24 24 24 24 22 20 19 19 19 19 18 17 17 16 16 16 15 13 13 12 11 10 9 8 9 9 10 11 10 9 9 10 10 10 10 10 11 11 12 13 14 14 13 13 13 13 12 12 12 12 12 13 13 14
19 18 17 17 17 17 17 18 18 18 17 16 16 15 15 16 18 19 21 22 24 26 27 27 27 27 26 25 24 24 24 24 25 26 25 23 20 19 19 19 19 17 17 17 17 17 16 15 13 13 12 11 10 9 8 9 9 10 11 11 9 10 11 10 10 10 10 10 11 12 13 13 12 12 12 11 11 11 10 10 10 10 11 12 12
19 17 17 17 18 18 19 19 20 19 18 17 17 16 16 17 19 19 21 23 24 26 27 28 28 27 26 25 25 25 26 26 26 26 26 24 21 20 20 20 19 18 17 18 18 17 16 15 14 14 12 10 9 9 8 9 9 11 12 11 10 10 11 10 10 10 10 10 11 11 12 12 12 11 11 11 10 10 10 9 9 8 9 10 11
19 17 17 17 18 19 19 20 20 20 19 18 18 17 18 18 19 20 21 22 24 26 27 28 27 26 25 25 26 27 27 28 27 27 26 24 22 21 20 20 19 18 18 18 18 16 15 15 14 14 12 10 10 9 8 9 9 11 12 11 10 10 11 11 11 10 10 10 10 10 10 11 11 11 11 11 10 10 9 9 8 8 8 9 10
19 18 17 17 18 19 19 20 20 20 20 19 19 19 19 19 20 21 22 23 24 26 27 27 26 25 25 25 27 28 28 29 29 27 26 25 23 22 21 20 19 18 18 18 17 16 15 15 15 14 13 10 10 9 9 9 9 11 12 11 10 10 10 11 11 11 9 9 10 9 9 9 10 10 10 10 10 10 10 10 9 9 9 9 10
19 19 18 18 19 19 20 20 21 21 20 20 21 21 21 21 21 22 23 24 25 26 27 27 26 27 26 26 28 29 28 29 29 28 27 26 24 23 21 20 19 19 18 18 17 15 15 15 15 15 13 11 10 10 10 10 10 11 11 11 11 11 11 11 11 10 9 10 10 9 9 10 10 9 9 9 9 10 10 10 10 9 9 8 8
19 19 19 19 20 20 21 21 22 22 21 22 22 23 22 21 21 22 23 25 26 27 27 27 27 27 27 27 28 28 29 29 29 29 28 26 25 23 21 20 19 19 20 20 18 16 15 15 15 15 13 11 11 10 10 10 11 11 11 11 12 12 12 12 11 10 9 10 10 10 10 10 9 9 9 9 9 9 9 9 9 9 8 7 7
19 19 20 21 22 22 22 23 24 24 24 24 24 24 23 22 22 23 24 25 27 28 27 26 26 27 28 28 28 28 28 28 28 28 28 26 25 24 22 20 19 20 22 21 19 17 16 16 16 16 14 13 12 11 11 11 12 12 12 12 13 13 13 13 11 10 9 9 9 9 9 9 8 8 8 8 7 8 7 7 7 8 8 7 6
20 21 22 23 24 24 25 26 27 27 26 26 26 25 24 23 24 25 25 25 26 27 26 25 25 26 27 27 27 27 26 27 27 27 27 26 25 24 22 20 19 21 22 21 19 19 18 17 17 17 15 14 13 13 13 13 13 13 13 13 13 13 13 12 11 10 10 9 9 9 8 7 7 6 6 6 6 6 6 6 6 6 7 6 5
22 23 24 26 27 27 28 29 29 29 28 26 26 25 24 24 25 25 25 24 24 24 24 23 25 25 25 25 26 25 24 25 25 26 27 26 25 25 22 20 19 21 22 21 20 20 20 19 18 18 16 15 15 14 14 14 14 14 14 14 14 14 13 12 11 11 10 10 10 10 8 7 6 6 5 5 5 5 4 5 6 6 6 5 4
24 25 25 26 26 25 24 22 22 25 26 25 25 25 25 24 25 25 24 23 22 22 23 24 24 25 25 25 25 25 25 24 24 25 27 26 25 24 22 20 19 22 23 22 20 19 19 19 19 18 17 16 16 15 15 15 15 15 16 16 15 14 13 12 12 12 11 11 11 9 8 8 8 7 6 6 6 6 5 6 6 6 5 5 4
25 25 25 25 25 24 21 16 17 21 24 25 26 26 26 25 24 24 23 22 21 21 24 24 23 25 27 26 25 25 25 24 24 25 26 26 26 24 23 22 21 23 24 23 21 20 19 20 21 20 19 17 17 16 17 17 17 17 17 16 15 14 13 13 13 12 12 13 11 10 9 8 9 9 9 8 7 7 6 7 8 7 6 5 5
26 26 26 26 23 22 24 22 18 18 20 23 26 27 27 26 25 24 22 22 22 22 24 24 24 27 27 26 25 23 24 24 24 26 27 27 26 24 24 24 23 23 23 22 22 21 21 22 22 20 19 18 18 18 18 19 18 18 17 16 15 14 14 13 13 13 13 13 12 10 10 10 10 10 10 9 9 8 8 9 9 8 7 6 5
28 28 31 34 27 19 23 27 22 16 17 20 24 27 27 26 26 24 23 23 23 23 24 24 24 25 23 22 21 21 23 23 24 26 27 27 26 25 25 25 25 23 22 22 23 23 23 23 22 21 20 20 20 20 20 19 19 18 17 16 15 15 14 14 14 14 14 13 13 12 12 12 11 10 10 9 9 9 10 10 10 9 8 7 6
27 26 32 37 34 30 26 23 24 22 21 20 21 23 25 25 25 24 24 23 22 23 23 22 22 20 19 17 16 18 22 22 24 26 25 26 26 24 24 25 24 23 22 23 23 23 23 23 23 22 21 21 22 21 20 20 20 19 17 16 15 15 15 15 15 15 15 14 14 13 13 13 12 12 11 10 10 10 11 11 10 9 8 8 8
26 26 31 35 35 34 28 19 20 24 26 26 24 22 22 23 23 24 25 24 23 23 22 20 20 18 18 17 16 18 20 21 22 23 23 24 25 23 23 24 24 23 23 24 23 22 24 24 24 23 22 22 22 21 21 21 21 19 18 17 16 16 15 15 15 15 15 15 15 14 14 14 13 13 12 11 11 11 11 11 11 10 10 10 9
30 30 32 34 34 32 28 22 20 22 25 27 26 24 23 23 24 23 24 25 24 23 21 20 19 17 17 17 16 16 18 20 22 23 24 25 26 25 25 25 25 24 24 23 22 23 25 25 24 24 23 22 22 22 22 22 21 21 19 18 16 16 15 15 15 16 16 16 16 15 15 15 15 14 14 13 13 13 12 13 12 12 12 11 11
32 31 29 31 32 30 28 26 24 25 27 28 27 27 26 26 27 26 25 25 24 22 21 21 18 16 16 16 15 16 18 21 22 23 25 26 26 27 27 27 26 26 24 22 22 24 25 25 25 24 23 23 22 22 22 22 22 22 20 18 16 16 16 16 16 16 17 16 16 16 16 16 16 16 15 14 14 14 14 15 14 14 13 13 12
Wind_Direction
296 294 294 295 297 299 300 303 303 302 303 305 307 309 310 312 316 320 323 325 327 332 336 338 338 337 337 338 341 342 343 344 344 346 347 349 350 352 355 357 356 356 359 358 353 346 341 338 339 339 339 338 337 337 340 348 356 3 3 358 359 360 359 359 356 347 339 338 335 335 340 343 354 24 22 3 44 62 72 72 77 72 68 66 62
289 289 291 292 294 295 296 299 299 300 302 305 307 309 311 313 315 319 321 323 326 331 335 336 335 335 335 336 338 340 341 342 342 343 345 348 350 352 355 357 356 356 358 354 348 344 340 340 341 339 339 337 338 343 343 346 357 4 2 358 359 359 360 2 2 354 349 344 343 346 349 350 351 2 356 349 9 19 83 97 90 81 76 75 69
283 286 287 289 291 292 294 297 297 299 301 303 306 308 311 313 314 316 317 320 325 330 333 333 332 332 333 334 336 339 341 340 339 342 346 347 348 350 355 357 354 354 354 349 345 342 341 341 341 338 337 336 338 343 343 349 358 0 358 356 356 358 1 6 6 1 359 351 350 352 352 352 349 357 340 318 307 269 145 114 107 95 86 82 76
283 285 286 288 289 290 292 294 295 296 299 301 304 307 310 312 312 313 314 318 324 329 330 330 330 330 330 332 334 338 340 338 337 342 345 343 343 348 356 356 352 351 349 345 342 341 342 339 337 336 336 338 339 343 346 351 356 355 354 356 359 2 2 4 5 6 7 0 3 4 1 356 350 357 302 278 269 245 154 117 106 96 92 86 80
287 288 289 289 290 290 291 292 293 295 298 301 304 307 310 310 309 309 311 317 323 326 326 327 328 327 327 330 334 338 339 337 336 340 341 338 339 349 359 354 349 349 345 343 341 341 340 337 335 336 338 341 344 347 347 347 349 349 351 358 4 7 7 7 8 10 12 12 18 21 20 5 350 340 300 285 278 255 152 117 100 95 93 89 83
291 291 291 291 291 291 290 291 293 295 299 301 304 307 308 306 305 306 311 317 322 323 323 325 324 323 326 330 334 337 337 335 334 336 337 335 339 351 359 352 346 346 344 341 340 339 337 335 336 337 340 343 347 347 343 341 344 348 350 357 7 11 12 12 13 17 23 26 29 30 33 25 352 326 293 277 256 222 163 133 113 106 97 90 86
294 293 293 293 291 290 290 291 294 296 299 301 303 304 304 302 302 306 312 317 319 319 321 321 319 320 325 329 332 334 335 333 331 333 335 334 339 353 357 349 343 343 343 341 338 336 333 334 336 337 340 344 346 346 344 345 346 350 353 0 10 17 18 18 18 22 31 37 35 32 34 29 358 316 273 243 217 199 177 150 135 125 106 88 80
296 296 295 293 290 290 290 292 294 295 296 299 300 300 299 299 301 306 311 314 315 316 317 315 316 320 324 327 330 332 333 332 330 332 334 333 339 352 353 344 341 342 342 341 338 333 332 333 336 339 342 344 345 346 347 348 351 354 357 6 16 21 22 20 17 17 26 40 44 42 42 33 5 306 245 227 216 214 201 179 170 163 138 87 72
297 296 292 289 288 289 289 290 290 291 293 295 296 296 297 298 300 304 307 309 310 311 310 311 314 318 322 325 328 330 331 331 329 330 331 331 338 349 346 340 340 341 341 341 337 332 330 332 335 341 343 345 346 347 348 348 353 357 359 6 16 19 17 13 7 6 8 23 41 46 45 35 5 308 261 245 240 237 223 212 210 207 201 141 78
299 295 290 288 289 289 289 289 288 288 290 292 293 295 296 297 297 298 301 304 306 304 304 307 312 316 319 322 325 327 329 329 327 328 329 329 336 345 340 338 339 339 339 341 339 332 330 330 334 340 344 347 351 354 352 349 349 352 356 0 6 7 6 4 359 354 353 3 26 34 31 18 350 315 276 257 247 237 227 222 224 222 226 240 261
299 297 296 297 298 297 295 292 289 289 288 290 292 295 295 292 290 292 296 299 300 298 300 305 309 314 316 319 322 324 326 326 325 325 326 327 333 339 335 336 337 337 338 340 341 334 328 327 330 337 344 349 353 356 350 342 339 339 343 345 353 356 358 0 355 346 339 347 17 22 13 354 319 290 270 253 244 236 230 228 229 231 240 252 259
305 305 307 307 304 301 297 292 287 286 286 288 291 292 288 285 285 288 292 294 293 292 296 302 306 310 312 315 318 321 323 323 323 323 323 324 329 332 331 334 335 336 337 340 341 333 325 323 324 332 344 349 346 343 336 327 326 325 329 337 345 350 355 357 351 341 328 329 8 3 346 318 286 273 268 257 248 243 239 235 235 238 246 249 252
311 310 309 306 302 296 290 284 281 281 282 285 287 284 280 278 281 284 286 287 286 288 293 298 302 305 309 312 314 317 320 320 320 321 321 321 323 325 328 331 333 334 337 340 340 332 322 318 318 325 337 342 334 324 318 313 314 317 320 328 337 342 346 347 345 335 312 290 299 331 325 303 283 275 271 264 256 250 246 243 242 243 246 250 251
313 311 307 304 299 294 288 283 280 279 280 279 277 275 272 272 276 279 280 280 281 284 288 293 296 301 305 308 310 314 316 316 316 318 319 318 317 320 326 329 331 333 336 341 340 331 320 314 314 320 328 333 326 310 299 294 294 299 306 317 325 331 334 335 333 321 291 276 293 321 312 298 288 280 274 269 264 257 253 250 249 249 249 251 252
316 316 313 311 309 303 295 289 284 279 274 271 267 264 264 266 269 272 272 273 275 278 282 287 292 297 301 303 305 310 312 312 313 316 315 313 311 315 323 328 329 331 335 341 340 330 318 310 310 316 321 327 326 311 300 297 294 294 298 307 315 319 321 322 322 310 286 281 297 314 302 292 287 281 277 272 268 262 258 255 252 251 250 250 250
314 319 318 317 320 317 307 296 286 277 270 262 257 254 256 259 260 262 265 267 269 272 278 285 289 293 296 298 300 304 306 308 311 313 310 307 307 310 318 324 326 327 332 339 339 329 317 308 305 309 314 320 322 313 312 314 310 303 301 305 309 310 309 312 318 310 290 280 284 292 289 285 281 277 274 270 265 262 258 256 254 253 252 251 250
313 316 316 312 310 311 309 302 292 279 268 256 249 248 251 253 254 256 258 261 265 272 280 285 288 291 292 293 295 298 301 304 306 307 304 300 301 306 311 317 321 323 327 333 334 328 316 305 300 300 304 309 309 311 320 324 318 310 306 308 310 305 303 307 311 304 287 282 283 279 277 277 275 271 270 267 264 261 258 258 258 256 255 254 253
314 314 314 311 306 306 304 302 297 285 270 259 253 255 259 259 257 257 259 262 269 276 282 285 286 288 289 289 290 293 296 298 300 300 296 294 296 300 305 311 316 319 320 324 327 325 314 302 295 292 292 297 297 305 322 329 321 314 308 305 303 298 300 302 303 295 278 272 274 271 271 271 271 269 268 267 265 264 262 261 262 261 259 258 256
313 312 311 310 310 310 305 299 296 286 270 263 263 269 274 272 268 266 267 271 276 280 282 284 285 285 285 285 286 289 291 291 293 293 290 289 291 295 300 306 312 316 316 318 320 320 311 298 291 287 284 284 287 296 315 318 312 313 311 299 287 291 297 296 294 290 276 264 262 262 264 264 265 264 262 262 264 265 265 264 263 262 261 259 259
311 310 308 307 307 308 304 299 295 285 272 266 268 273 277 277 276 276 277 278 279 280 280 281 282 283 283 282 282 284 285 285 287 287 283 284 287 290 296 301 306 311 313 314 315 316 308 294 289 287 283 279 278 282 287 290 295 302 306 293 278 285 292 288 283 282 275 264 258 256 257 257 257 258 257 255 256 259 261 262 263 263 264 264 264
309 306 306 306 306 305 303 300 295 288 279 273 270 271 273 273 274 276 277 278 277 276 277 279 280 281 281 279 279 281 281 280 282 281 276 277 282 286 291 295 299 305 309 309 310 312 304 293 290 287 284 279 274 272 265 269 280 290 294 284 274 280 285 281 274 270 269 264 260 258 257 255 254 255 257 256 254 253 254 256 260 264 266 267 269
308 307 306 306 306 305 303 299 295 291 285 278 273 271 270 269 270 275 275 276 278 277 278 279 279 279 278 277 277 278 277 275 277 276 271 271 275 281 286 291 295 299 301 302 303 304 299 291 289 286 283 277 273 271 264 263 269 279 284 275 270 274 277 274 269 263 260 260 260 261 262 261 258 257 257 258 258 256 255 254 255 259 262 265 268
308 308 307 306 305 302 299 297 295 294 287 279 277 274 268 263 263 272 280 285 284 281 280 280 279 275 274 274 275 275 272 270 272 273 269 266 269 276 282 287 292 294 293 292 293 291 288 288 285 282 278 274 273 272 268 267 269 272 270 265 265 269 271 270 265 256 252 253 255 257 261 263 265 263 260 258 259 260 261 259 257 257 259 261 264
307 308 306 304 302 297 293 289 287 285 281 278 279 277 267 248 247 285 295 291 285 280 279 279 278 274 272 271 271 270 266 264 265 268 267 263 264 270 277 284 288 289 287 284 282 277 276 281 278 275 273 271 272 272 271 273 276 275 261 252 259 267 270 270 264 255 252 254 255 256 258 259 262 264 263 260 260 262 263 263 262 261 261 261 262
306 306 305 302 298 294 290 285 280 275 273 276 276 279 271 246 256 295 304 295 285 279 277 277 276 272 270 268 265 263 259 258 259 263 264 261 262 268 274 280 284 284 282 278 275 269 270 272 266 266 267 267 270 272 273 275 278 278 269 255 256 263 268 271 268 260 258 259 259 260 262 262 261 262 263 262 262 263 265 266 266 266 265 265 264
304 304 303 299 293 290 288 285 280 273 273 275 273 275 274 259 268 290 303 299 290 281 277 275 273 271 268 263 257 254 254 256 259 260 260 258 262 266 270 275 279 280 277 273 271 269 267 260 252 257 261 264 267 269 273 276 276 278 278 272 266 267 269 270 267 264 264 261 261 262 264 267 268 269 270 268 266 265 265 266 268 270 270 270 269
302 303 300 294 287 284 283 281 277 273 270 271 271 272 276 273 276 286 296 299 294 286 279 276 273 270 266 258 250 249 248 251 256 258 257 257 260 263 267 270 270 271 271 270 269 269 267 253 240 249 256 260 262 264 270 274 276 280 280 278 278 277 276 271 262 261 267 268 267 266 266 270 273 275 275 274 273 271 269 267 267 269 271 273 272
300 300 295 288 280 276 276 274 268 265 263 266 271 275 277 278 282 287 293 295 290 284 279 275 272 269 266 257 250 251 248 246 253 256 255 255 258 261 264 266 265 264 266 268 267 267 266 252 236 241 250 255 256 261 268 273 280 284 279 275 278 279 278 278 266 257 260 268 273 273 271 271 273 276 276 275 274 274 273 272 269 268 268 270 272
297 296 291 282 273 268 268 268 263 259 261 266 271 273 276 281 287 289 289 286 282 280 277 275 270 267 266 259 255 257 251 249 254 256 255 254 256 258 261 263 263 262 264 266 266 266 263 252 237 236 245 251 254 260 269 277 285 285 277 273 276 275 276 283 280 268 262 265 271 274 274 273 274 275 275 274 274 273 271 270 269 267 266 266 268
294 292 286 277 268 262 262 263 262 261 261 263 266 269 275 281 284 284 283 280 278 277 276 276 271 265 262 260 260 260 253 251 255 256 255 254 255 256 259 262 263 262 263 265 265 264 261 253 241 236 243 252 256 263 270 276 283 281 274 273 277 279 280 284 287 282 273 268 269 273 278 279 278 276 275 273 273 274 271 267 264 262 262 262 263
291 287 281 274 264 256 254 255 257 259 259 260 261 265 271 276 278 278 276 275 274 275 275 275 273 267 261 258 258 258 253 252 255 256 254 253 254 255 257 261 262 262 261 262 263 262 259 254 247 241 246 255 260 265 268 271 276 277 273 273 277 282 284 285 285 284 280 276 274 278 282 283 282 280 278 275 272 271 271 268 264 260 258 258 259
289 284 279 271 258 249 246 247 249 253 256 258 259 262 266 270 272 273 271 270 270 271 273 274 272 269 264 257 254 253 253 254 256 257 255 252 252 253 255 259 262 262 260 259 260 259 257 255 253 251 252 258 262 265 266 270 274 275 273 271 273 278 281 281 281 281 279 280 281 281 283 284 282 281 281 279 274 270 268 267 264 261 258 256 256
288 283 277 268 257 247 243 244 247 250 253 256 259 263 266 267 267 267 267 266 266 267 269 271 270 268 265 258 253 251 252 255 257 257 255 253 253 252 253 257 260 262 259 256 256 255 254 255 258 258 258 259 262 264 264 269 273 272 270 268 269 271 273 275 273 273 275 279 282 283 284 283 282 281 280 278 274 269 265 264 263 261 259 257 256
285 279 274 268 260 252 249 249 249 250 253 256 261 265 267 268 267 265 265 265 265 265 266 267 268 267 264 259 254 252 253 255 255 256 254 253 253 252 252 255 257 258 255 252 251 250 252 256 259 261 262 260 260 261 265 269 271 269 265 263 262 262 265 269 267 268 273 279 285 288 288 286 284 282 279 276 272 267 264 263 262 261 259 257 255
282 277 272 267 263 259 257 256 254 254 254 256 260 264 268 271 270 268 268 267 267 267 266 266 265 265 263 260 257 255 253 252 252 253 252 252 252 250 250 252 252 252 251 248 246 246 250 257 259 261 262 260 257 258 264 269 269 264 260 259 255 255 260 264 264 266 271 280 287 289 288 286 284 282 278 275 269 263 261 261 260 259 257 255 254
282 279 275 270 265 262 260 260 260 259 258 258 261 265 270 272 273 272 270 270 269 268 267 266 265 266 266 264 261 257 253 250 249 249 250 250 249 246 247 250 249 248 248 245 241 243 250 256 258 259 258 256 256 259 262 265 263 257 254 254 251 252 258 261 263 265 269 277 284 286 288 287 283 279 275 270 265 259 256 256 256 255 253 253 252
280 281 279 275 269 264 261 261 261 262 262 261 264 269 273 274 273 273 272 271 270 268 267 267 268 269 270 268 264 259 255 252 249 249 249 249 246 244 244 248 248 247 246 242 237 240 247 251 253 255 255 254 255 259 260 259 256 251 250 250 249 252 258 262 265 266 271 279 283 286 291 292 284 279 275 268 263 259 255 253 253 252 251 250 250
279 281 281 278 272 267 264 262 261 262 263 265 267 271 273 275 275 274 274 273 271 270 268 269 271 271 270 267 263 257 253 252 250 248 248 247 243 240 241 245 245 243 240 235 233 238 244 247 250 251 251 252 254 258 258 255 251 248 248 248 248 252 259 263 266 270 275 282 284 285 294 299 292 282 278 272 267 265 260 256 253 252 251 251 253
281 283 283 279 275 271 268 266 264 264 265 266 267 270 271 273 276 279 278 277 275 273 271 271 272 272 271 270 266 258 251 249 250 249 247 245 241 237 239 241 240 237 231 228 232 239 243 246 248 249 250 251 252 254 254 251 248 246 246 248 251 254 257 260 264 270 278 282 282 284 291 299 298 290 283 278 274 273 270 263 256 255 254 256 259
283 284 283 280 276 273 270 268 265 265 265 264 265 265 267 270 275 280 281 279 278 276 275 274 273 272 271 271 269 262 251 246 250 252 249 245 239 236 236 236 234 229 223 224 232 240 244 246 248 248 248 248 247 247 247 244 243 244 244 247 251 253 255 258 262 268 275 279 279 281 286 290 295 297 290 283 279 278 276 268 260 258 259 259 259
280 281 281 278 272 268 264 261 260 260 259 259 261 262 264 268 273 278 280 281 281 280 279 277 274 274 276 277 274 266 254 245 245 249 248 243 237 234 234 232 229 223 220 224 232 239 242 242 244 245 245 246 245 241 239 238 238 242 243 245 249 251 255 259 262 266 269 273 276 278 282 283 287 295 291 283 280 280 279 274 267 266 266 262 257
281 280 277 272 266 262 258 256 253 251 252 254 256 260 262 265 270 273 276 279 281 283 283 279 276 277 281 282 277 268 259 250 245 244 242 239 234 233 231 229 228 220 218 225 231 238 240 238 240 242 241 243 244 240 235 235 238 241 243 245 247 250 255 259 262 263 264 268 271 273 276 276 276 284 285 281 283 286 287 285 279 274 270 265 263
275 275 273 269 265 261 257 254 250 244 244 249 253 255 258 259 262 267 270 275 280 284 284 280 276 277 281 283 276 265 257 253 249 245 238 232 232 234 231 229 227 216 214 223 230 236 239 237 239 242 241 241 242 240 236 236 238 240 242 244 245 248 253 257 260 260 261 264 265 266 270 272 270 272 275 281 289 291 290 289 285 280 272 265 270
268 266 264 266 266 260 255 252 254 253 249 249 252 252 253 254 255 259 263 269 275 281 283 282 279 280 282 282 275 261 251 249 249 244 235 228 229 232 229 228 223 214 214 223 230 235 237 237 238 239 240 241 242 240 237 237 238 239 240 242 243 247 251 254 256 257 258 260 260 260 264 269 270 268 265 269 281 283 281 281 280 278 271 263 274
269 264 258 264 263 254 254 262 273 278 269 262 260 258 256 255 255 257 261 266 270 274 278 280 280 280 281 281 275 261 248 246 245 239 231 226 227 229 227 225 219 216 219 224 231 235 236 236 235 236 238 241 242 240 237 237 237 238 240 242 244 246 249 250 252 254 254 255 256 255 256 260 265 266 262 261 263 265 267 271 270 269 266 261 267
279 272 269 278 278 258 252 258 270 283 278 269 268 268 265 262 261 262 264 269 272 272 273 276 276 277 279 278 273 259 246 246 241 231 226 226 227 227 226 224 221 222 224 226 231 233 234 236 235 235 238 240 242 240 237 237 238 239 241 244 246 247 247 247 249 252 253 253 253 251 253 258 261 262 261 260 259 259 262 263 262 262 260 254 252
280 281 282 285 295 292 265 251 253 275 285 274 266 266 269 270 270 270 269 269 271 272 273 276 275 276 279 277 264 249 243 245 236 225 224 227 227 226 227 225 222 223 225 228 231 232 234 237 236 236 237 239 241 239 237 239 240 241 243 244 246 247 248 247 248 250 251 250 250 249 253 260 262 258 256 258 259 259 260 259 258 257 252 245 242
276 285 289 285 288 296 288 260 253 271 285 282 273 266 268 272 274 275 274 270 269 270 270 272 274 273 278 276 256 242 243 241 230 222 225 228 228 228 228 226 223 222 226 231 231 232 235 236 236 236 236 238 240 239 238 240 242 243 245 246 246 246 247 248 249 251 250 248 248 249 255 260 260 255 253 253 255 255 255 255 255 252 244 239 240
276 285 291 289 286 287 293 286 272 276 278 276 278 276 273 275 278 277 273 270 268 267 266 268 270 271 274 270 255 245 243 236 227 224 227 229 228 227 224 223 224 224 228 230 229 232 235 235 236 237 237 239 240 240 240 241 243 245 247 247 247 246 247 249 251 251 251 249 248 249 253 255 255 254 254 252 252 252 253 253 253 249 241 238 241
277 282 285 289 288 286 290 290 282 282 280 278 279 280 276 277 281 276 269 270 269 266 264 261 261 264 268 263 253 248 242 234 229 226 227 228 226 225 224 225 226 227 230 230 229 233 234 234 236 237 238 239 239 239 239 241 243 245 248 249 249 250 251 251 250 250 251 250 249 248 250 251 251 253 255 254 253 252 253 253 250 246 243 241 244
276 280 283 288 293 296 295 288 278 277 283 288 289 287 283 280 281 275 266 267 270 269 265 258 251 251 258 258 254 251 243 235 232 229 229 230 228 226 227 229 228 228 231 232 231 235 235 233 236 238 238 239 239 239 240 242 244 246 249 252 252 253 254 252 250 250 251 250 249 248 249 251 253 253 254 254 253 253 252 252 249 246 246 246 250
Height
5869 5868 5868 5867 5867 5867 5867 5867 5866 5866 5865 5864 5864 5864 5863 5863 5863 5863 5863 5863 5862 5862 5862 5861 5861 5860 5859 5858 5857 5857 5856 5855 5854 5854 5853 5852 5851 5850 5850 5849 5849 5848 5848 5847 5847 5846 5844 5844 5842 5841 5841 5840 5839 5838 5837 5837 5838 5837 5838 5838 5838 5838 5837 5837 5836 5835 5834 5834 5835 5835 5834 5833 5834 5835 5835 5835 5835 5835 5835 5835 5835 5835 5835 5835 5835
5867 5867 5867 5866 5866 5866 5866 5866 5865 5864 5863 5863 5863 5863 5863 5863 5863 5863 5862 5862 5862 5862 5861 5861 5860 5859 5858 5857 5857 5856 5855 5855 5854 5853 5852 5852 5851 5850 5850 5849 5849 5848 5848 5847 5847 5845 5844 5843 5842 5841 5840 5839 5839 5838 5837 5837 5837 5838 5838 5838 5838 5838 5837 5836 5836 5835 5834 5834 5835 5835 5834 5834 5834 5835 5835 5835 5835 5835 5836 5836 5836 5836 5836 5836 5836
5866 5866 5866 5866 5866 5865 5865 5864 5864 5863 5862 5862 5862 5862 5863 5863 5862 5862 5862 5862 5862 5861 5861 5861 5860 5859 5858 5857 5856 5856 5855 5854 5854 5853 5852 5851 5850 5850 5850 5849 5849 5848 5848 5847 5846 5845 5844 5843 5842 5841 5840 5839 5839 5839 5838 5838 5838 5838 5838 5838 5838 5838 5837 5837 5837 5836 5836 5836 5835 5835 5835 5835 5835 5835 5835 5836 5836 5836 5836 5836 5836 5836 5836 5836 5836
5865 5865 5865 5865 5865 5864 5864 5863 5863 5862 5862 5862 5862 5862 5862 5862 5862 5862 5861 5861 5861 5861 5861 5860 5860 5859 5858 5857 5856 5856 5855 5854 5853 5852 5852 5851 5851 5850 5850 5849 5849 5848 5848 5847 5846 5845 5844 5843 5842 5841 5840 5840 5839 5839 5839 5839 5838 5838 5838 5838 5838 5838 5837 5837 5837 5837 5837 5837 5836 5836 5836 5836 5836 5836 5837 5837 5837 5837 5836 5836 5836 5836 5837 5837 5837
5864 5864 5864 5864 5864 5863 5863 5862 5862 5861 5861 5861 5861 5862 5862 5862 5861 5861 5861 5861 5861 5861 5860 5860 5859 5858 5858 5857 5856 5856 5855 5853 5852 5852 5852 5851 5850 5850 5850 5850 5849 5848 5848 5847 5846 5845 5844 5843 5842 5841 5841 5840 5840 5839 5839 5839 5839 5839 5839 5839 5838 5838 5838 5838 5838 5838 5837 5837 5837 5837 5837 5837 5837 5837 5837 5837 5837 5837 5836 5836 5836 5837 5837 5837 5837
5863 5864 5864 5863 5863 5862 5861 5861 5861 5861 5860 5860 5860 5861 5861 5861 5860 5860 5860 5860 5860 5860 5860 5859 5859 5858 5857 5857 5856 5855 5854 5853 5852 5852 5852 5851 5850 5850 5850 5850 5849 5848 5848 5847 5846 5845 5844 5843 5842 5841 5841 5840 5840 5840 5840 5839 5839 5839 5839 5839 5838 5838 5838 5838 5838 5838 5838 5838 5838 5837 5837 5837 5837 5837 5837 5837 5837 5837 5837 5837 5837 5837 5837 5837 5837
5863 5863 5863 5863 5862 5861 5860 5860 5860 5860 5860 5859 5859 5860 5860 5860 5860 5860 5860 5860 5860 5859 5859 5859 5858 5857 5857 5856 5855 5854 5853 5852 5852 5852 5851 5851 5850 5850 5850 5850 5849 5848 5848 5847 5846 5845 5843 5842 5842 5841 5841 5840 5840 5840 5840 5839 5839 5839 5839 5839 5839 5839 5838 5838 5838 5838 5838 5838 5838 5837 5837 5837 5837 5837 5837 5837 5837 5837 5837 5837 5837 5837 5837 5837 5837
5863 5862 5862 5861 5861 5860 5860 5859 5859 5859 5859 5859 5859 5859 5859 5859 5860 5860 5859 5859 5859 5858 5858 5858 5857 5856 5856 5855 5855 5854 5853 5852 5851 5851 5851 5850 5850 5850 5850 5850 5849 5848 5848 5847 5846 5844 5843 5842 5841 5841 5841 5840 5840 5840 5840 5840 5840 5840 5840 5839 5839 5839 5839 5838 5838 5838 5838 5838 5838 5838 5838 5838 5837 5837 5837 5837 5837 5837 5837 5837 5837 5837 5838 5838 5838
5861 5861 5860 5860 5860 5859 5859 5859 5858 5858 5858 5858 5858 5858 5859 5859 5859 5859 5859 5858 5858 5858 5857 5857 5856 5855 5855 5854 5854 5854 5853 5852 5851 5851 5850 5850 5850 5850 5850 5849 5849 5848 5848 5847 5846 5844 5843 5842 5841 5841 5841 5841 5841 5840 5840 5840 5840 5840 5840 5840 5839 5839 5839 5838 5838 5838 5838 5838 5838 5838 5838 5838 5838 5838 5838 5838 5837 5837 5837 5837 5838 5838 5838 5838 5838
5858 5858 5858 5858 5858 5858 5858 5858 5857 5857 5857 5857 5858 5858 5858 5858 5858 5858 5858 5857 5857 5857 5856 5856 5855 5855 5854 5854 5853 5853 5852 5852 5851 5850 5850 5849 5850 5850 5850 5849 5849 5848 5848 5847 5846 5844 5843 5842 5841 5841 5841 5841 5841 5840 5840 5840 5840 5840 5840 5840 5840 5839 5839 5838 5838 5837 5837 5837 5837 5837 5837 5838 5838 5838 5838 5838 5838 5838 5838 5838 5838 5838 5838 5838 5838
5856 5856 5856 5857 5857 5857 5857 5856 5856 5856 5856 5856 5857 5857 5857 5857 5857 5857 5856 5856 5856 5855 5855 5855 5854 5854 5853 5853 5853 5852 5852 5851 5850 5850 5849 5848 5849 5850 5850 5849 5849 5848 5848 5847 5846 5844 5843 5842 5841 5841 5841 5841 5841 5841 5841 5841 5841 5841 5841 5840 5840 5839 5839 5838 5838 5837 5837 5837 5837 5837 5837 5837 5838 5838 5838 5838 5838 5838 5838 5838 5838 5838 5839 5839 5839
5855 5855 5856 5856 5856 5856 5855 5855 5854 5854 5854 5855 5855 5855 5855 5855 5855 5855 5855 5855 5854 5854 5854 5853 5853 5853 5853 5852 5852 5852 5851 5850 5850 5849 5848 5847 5849 5850 5849 5849 5848 5848 5848 5847 5847 5845 5843 5842 5841 5842 5842 5842 5841 5841 5841 5841 5841 5841 5841 5840 5840 5840 5839 5839 5838 5837 5837 5837 5837 5837 5837 5837 5838 5838 5838 5838 5838 5839 5839 5839 5839 5839 5839 5839 5839
5854 5854 5854 5854 5854 5853 5853 5852 5852 5852 5853 5853 5853 5853 5854 5854 5854 5854 5854 5854 5853 5853 5853 5852 5852 5852 5852 5851 5851 5851 5850 5849 5849 5848 5847 5847 5848 5849 5849 5848 5848 5848 5848 5847 5847 5845 5843 5842 5841 5842 5842 5842 5841 5841 5841 5841 5841 5841 5841 5840 5840 5839 5839 5838 5838 5837 5837 5837 5836 5837 5837 5837 5837 5838 5838 5838 5838 5838 5838 5838 5839 5839 5839 5839 5839
5853 5853 5853 5852 5852 5852 5851 5851 5851 5851 5851 5852 5852 5852 5852 5852 5852 5853 5852 5852 5852 5851 5851 5851 5851 5851 5851 5850 5850 5850 5849 5848 5847 5847 5846 5846 5847 5848 5848 5848 5847 5847 5847 5847 5846 5845 5843 5842 5842 5842 5842 5842 5841 5841 5841 5841 5841 5841 5840 5840 5840 5839 5839 5838 5838 5837 5837 5837 5837 5837 5837 5837 5837 5837 5838 5838 5838 5838 5838 5838 5838 5839 5839 5839 5839
5852 5851 5851 5851 5851 5851 5850 5850 5850 5850 5850 5850 5850 5850 5850 5850 5851 5851 5851 5850 5850 5850 5850 5850 5849 5849 5849 5849 5848 5848 5848 5847 5846 5846 5846 5846 5846 5846 5847 5847 5847 5847 5847 5847 5846 5845 5843 5842 5842 5842 5842 5841 5841 5840 5840 5840 5840 5840 5840 5840 5840 5839 5839 5838 5838 5837 5837 5837 5837 5837 5837 5837 5837 5837 5837 5837 5837 5838 5838 5838 5838 5838 5838 5838 5838
5850 5850 5850 5850 5850 5849 5849 5849 5849 5848 5848 5848 5848 5848 5848 5848 5849 5849 5848 5848 5848 5848 5848 5848 5848 5848 5848 5847 5847 5847 5847 5846 5845 5845 5844 5845 5845 5845 5845 5846 5846 5846 5846 5847 5846 5845 5843 5842 5842 5842 5842 5841 5841 5840 5840 5840 5840 5840 5840 5839 5839 5839 5838 5838 5838 5837 5837 5837 5837 5837 5837 5837 5837 5837 5837 5837 5837 5837 5837 5837 5837 5837 5837 5837 5837
5849 5849 5849 5848 5848 5847 5848 5847 5847 5847 5846 5846 5846 5846 5846 5846 5847 5846 5846 5846 5846 5847 5847 5846 5846 5846 5846 5846 5846 5846 5845 5844 5844 5844 5843 5844 5844 5844 5844 5844 5845 5845 5846 5846 5846 5845 5843 5842 5841 5842 5842 5841 5841 5840 5840 5840 5840 5839 5839 5839 5839 5839 5838 5838 5838 5838 5837 5837 5837 5837 5837 5837 5837 5837 5837 5837 5837 5837 5837 5837 5837 5837 5837 5837 5836
5847 5847 5847 5846 5845 5845 5845 5845 5845 5845 5844 5844 5844 5844 5845 5845 5845 5844 5844 5845 5845 5845 5845 5845 5845 5845 5844 5844 5844 5844 5844 5843 5843 5842 5842 5842 5843 5843 5843 5843 5844 5844 5845 5846 5846 5845 5843 5842 5841 5841 5842 5841 5841 5840 5840 5840 5840 5839 5839 5839 5839 5838 5838 5838 5838 5838 5837 5837 5837 5837 5837 5837 5837 5836 5836 5836 5836 5836 5836 5836 5836 5836 5836 5836 5836
5845 5845 5844 5843 5843 5842 5842 5843 5843 5843 5843 5843 5843 5843 5844 5844 5843 5843 5843 5844 5843 5843 5843 5843 5843 5843 5843 5843 5843 5843 5843 5842 5842 5841 5840 5840 5841 5842 5842 5841 5842 5843 5844 5845 5845 5844 5843 5842 5841 5841 5841 5842 5841 5841 5840 5840 5839 5839 5839 5838 5838 5838 5838 5838 5837 5837 5837 5837 5837 5837 5837 5837 5836 5836 5836 5836 5836 5836 5836 5836 5836 5836 5836 5836 5835
5843 5842 5842 5841 5841 5840 5840 5840 5840 5840 5841 5841 5842 5842 5842 5842 5842 5842 5842 5842 5842 5842 5841 5841 5841 5841 5841 5841 5841 5841 5841 5840 5840 5840 5839 5838 5839 5840 5840 5840 5840 5841 5842 5843 5844 5844 5843 5842 5841 5840 5841 5841 5841 5841 5841 5839 5839 5839 5838 5838 5838 5838 5837 5837 5837 5837 5837 5836 5836 5836 5836 5836 5836 5836 5836 5835 5835 5835 5835 5835 5835 5835 5835 5835 5835
5840 5840 5840 5839 5839 5839 5839 5839 5838 5838 5838 5839 5839 5839 5840 5840 5840 5840 5840 5840 5840 5840 5840 5840 5839 5839 5839 5839 5839 5839 5839 5839 5839 5839 5838 5837 5837 5838 5839 5839 5838 5839 5840 5842 5843 5843 5843 5842 5841 5840 5840 5840 5840 5841 5840 5839 5838 5838 5838 5838 5838 5837 5837 5837 5837 5836 5836 5836 5836 5836 5836 5836 5835 5835 5835 5835 5835 5835 5834 5834 5834 5834 5834 5834 5834
5838 5838 5838 5838 5837 5837 5837 5837 5837 5837 5837 5837 5837 5837 5838 5838 5838 5838 5839 5839 5839 5838 5838 5838 5838 5838 5837 5837 5837 5837 5838 5838 5838 5838 5837 5836 5836 5836 5837 5837 5837 5837 5838 5840 5841 5842 5842 5842 5840 5840 5839 5839 5839 5840 5840 5838 5838 5838 5838 5837 5837 5837 5837 5837 5836 5836 5836 5836 5836 5836 5836 5835 5835 5835 5835 5834 5834 5834 5834 5833 5833 5833 5833 5833 5833
5836 5836 5836 5836 5835 5835 5834 5835 5835 5835 5836 5835 5835 5836 5836 5837 5837 5837 5837 5837 5837 5837 5836 5836 5836 5836 5836 5836 5836 5836 5836 5837 5837 5837 5836 5835 5834 5835 5835 5835 5835 5836 5836 5837 5839 5840 5841 5841 5840 5839 5838 5837 5838 5839 5839 5837 5837 5837 5837 5837 5836 5836 5836 5836 5836 5835 5835 5835 5835 5835 5835 5835 5835 5834 5834 5834 5833 5833 5833 5833 5833 5833 5832 5832 5833
5834 5834 5834 5834 5833 5833 5832 5833 5834 5834 5834 5834 5834 5834 5835 5836 5836 5836 5836 5836 5836 5835 5835 5835 5835 5835 5834 5834 5834 5834 5834 5835 5835 5835 5835 5834 5833 5834 5834 5834 5834 5834 5835 5836 5837 5838 5839 5840 5840 5839 5837 5836 5836 5838 5837 5836 5836 5836 5836 5836 5835 5835 5835 5835 5835 5835 5835 5835 5835 5834 5834 5834 5834 5834 5833 5833 5832 5832 5832 5832 5832 5832 5832 5832 5832
5832 5832 5832 5832 5832 5831 5830 5831 5832 5832 5832 5833 5833 5833 5834 5834 5835 5835 5835 5834 5834 5833 5833 5833 5833 5833 5833 5833 5833 5833 5833 5833 5833 5834 5834 5833 5833 5832 5833 5833 5833 5833 5833 5834 5835 5836 5838 5839 5839 5838 5836 5835 5835 5836 5836 5835 5835 5835 5835 5835 5834 5834 5834 5834 5834 5834 5834 5834 5834 5834 5834 5834 5833 5833 5832 5832 5832 5831 5831 5831 5831 5831 5831 5831 5831
5830 5830 5830 5830 5830 5829 5828 5829 5830 5830 5831 5831 5831 5831 5832 5833 5833 5833 5833 5833 5832 5832 5831 5831 5831 5831 5831 5831 5831 5831 5831 5831 5831 5832 5833 5832 5831 5831 5831 5831 5831 5831 5832 5832 5833 5834 5836 5837 5838 5836 5835 5834 5834 5835 5835 5834 5833 5833 5833 5833 5833 5833 5833 5833 5833 5833 5833 5833 5833 5833 5833 5833 5833 5832 5832 5831 5831 5830 5830 5830 5830 5830 5831 5831 5830
5828 5828 5828 5828 5827 5827 5826 5827 5828 5828 5829 5829 5829 5830 5830 5831 5831 5831 5831 5831 5830 5830 5829 5829 5829 5829 5829 5829 5829 5829 5829 5830 5830 5830 5831 5831 5830 5830 5830 5830 5830 5830 5830 5831 5832 5832 5834 5836 5836 5835 5834 5833 5833 5834 5834 5833 5832 5832 5832 5832 5832 5833 5833 5832 5832 5832 5832 5833 5833 5833 5833 5832 5832 5832 5831 5831 5830 5830 5829 5829 5829 5829 5829 5830 5830
5825 5825 5825 5825 5825 5824 5824 5825 5825 5826 5827 5827 5828 5828 5828 5829 5829 5829 5829 5829 5828 5828 5827 5827 5828 5827 5827 5827 5827 5827 5827 5828 5828 5829 5829 5830 5829 5829 5829 5829 5829 5829 5829 5829 5830 5831 5832 5834 5834 5834 5832 5831 5832 5832 5833 5832 5832 5832 5831 5831 5831 5832 5832 5832 5832 5832 5832 5832 5832 5832 5832 5832 5831 5831 5831 5830 5829 5829 5828 5828 5828 5828 5828 5828 5828
5823 5823 5823 5823 5823 5822 5822 5823 5823 5824 5825 5825 5826 5826 5826 5827 5827 5827 5827 5827 5827 5826 5826 5825 5826 5826 5825 5826 5826 5826 5826 5826 5827 5827 5828 5828 5828 5827 5827 5827 5827 5827 5827 5828 5829 5829 5830 5831 5832 5832 5831 5830 5830 5831 5831 5831 5831 5831 5831 5830 5830 5831 5831 5831 5831 5831 5831 5831 5831 5831 5831 5830 5830 5830 5830 5829 5829 5828 5827 5827 5827 5827 5827 5827 5827
5821 5821 5821 5820 5820 5820 5820 5821 5821 5822 5823 5823 5824 5824 5825 5825 5825 5825 5825 5825 5824 5824 5824 5823 5823 5823 5823 5824 5824 5825 5825 5825 5826 5826 5826 5826 5826 5826 5826 5826 5825 5826 5826 5826 5827 5828 5828 5829 5830 5830 5829 5829 5829 5830 5830 5830 5830 5830 5830 5829 5829 5830 5830 5830 5830 5830 5830 5830 5830 5829 5829 5829 5829 5828 5828 5828 5828 5827 5827 5826 5826 5825 5825 5825 5825
5819 5819 5818 5818 5818 5818 5819 5819 5819 5820 5821 5821 5822 5822 5823 5823 5823 5823 5823 5823 5822 5822 5821 5821 5821 5821 5821 5822 5822 5823 5823 5823 5824 5824 5824 5824 5824 5825 5825 5824 5824 5824 5824 5825 5826 5826 5826 5827 5828 5828 5828 5827 5828 5829 5829 5829 5829 5829 5829 5829 5829 5829 5829 5829 5829 5829 5828 5828 5828 5828 5828 5827 5827 5827 5827 5826 5826 5826 5825 5825 5825 5824 5824 5824 5824
5817 5816 5816 5815 5815 5816 5816 5817 5818 5818 5819 5819 5820 5820 5821 5821 5821 5821 5821 5820 5819 5819 5819 5818 5818 5818 5819 5819 5820 5821 5821 5821 5822 5822 5822 5822 5823 5823 5823 5823 5822 5822 5823 5824 5824 5825 5825 5825 5826 5826 5827 5827 5827 5827 5827 5827 5828 5828 5829 5828 5828 5829 5829 5828 5828 5827 5827 5827 5827 5827 5826 5826 5826 5825 5825 5825 5824 5824 5824 5823 5823 5823 5823 5823 5823
5814 5814 5814 5814 5814 5814 5814 5815 5816 5816 5817 5817 5818 5818 5819 5819 5819 5819 5818 5817 5816 5816 5815 5815 5815 5815 5816 5816 5817 5818 5819 5820 5820 5820 5820 5821 5821 5821 5821 5821 5821 5821 5822 5822 5823 5823 5823 5824 5824 5824 5825 5826 5826 5826 5826 5826 5827 5827 5828 5827 5827 5828 5828 5828 5827 5826 5826 5826 5826 5826 5825 5825 5824 5824 5823 5823 5823 5823 5822 5822 5822 5821 5821 5821 5821
5812 5812 5812 5812 5812 5812 5813 5813 5813 5814 5815 5815 5816 5816 5816 5816 5816 5816 5815 5815 5814 5813 5812 5812 5812 5812 5813 5813 5815 5816 5817 5817 5818 5818 5818 5818 5819 5819 5819 5819 5819 5820 5820 5821 5822 5822 5822 5822 5822 5823 5823 5824 5825 5825 5825 5825 5826 5826 5827 5826 5826 5826 5827 5826 5826 5825 5825 5825 5825 5824 5824 5824 5823 5822 5822 5822 5821 5821 5821 5820 5820 5820 5820 5820 5820
5811 5811 5811 5811 5811 5811 5811 5811 5811 5812 5812 5813 5813 5813 5814 5814 5813 5813 5813 5812 5811 5810 5810 5809 5809 5809 5810 5811 5812 5813 5814 5814 5814 5815 5815 5816 5817 5817 5818 5817 5818 5818 5819 5819 5820 5820 5820 5821 5821 5821 5822 5823 5823 5823 5823 5824 5824 5825 5825 5825 5825 5825 5826 5826 5825 5825 5824 5824 5823 5823 5823 5822 5822 5821 5821 5821 5820 5820 5820 5819 5819 5819 5819 5819 5819
5809 5809 5810 5810 5810 5810 5810 5810 5810 5810 5810 5811 5811 5811 5811 5811 5811 5811 5810 5810 5809 5808 5807 5807 5806 5807 5808 5809 5810 5810 5810 5810 5811 5811 5812 5813 5814 5815 5815 5815 5816 5816 5817 5818 5818 5819 5819 5819 5819 5820 5820 5821 5822 5822 5822 5822 5823 5824 5824 5824 5824 5824 5825 5825 5824 5824 5823 5823 5822 5822 5822 5821 5821 5820 5820 5820 5819 5819 5819 5818 5818 5818 5818 5818 5818
5808 5808 5808 5809 5809 5809 5809 5808 5808 5808 5808 5809 5809 5809 5809 5809 5808 5808 5808 5807 5806 5805 5804 5804 5804 5805 5805 5806 5807 5807 5808 5808 5808 5808 5809 5810 5811 5812 5813 5813 5814 5815 5816 5816 5817 5817 5818 5818 5818 5818 5819 5820 5821 5820 5821 5821 5822 5822 5823 5823 5823 5824 5824 5824 5823 5823 5822 5822 5821 5821 5821 5820 5820 5820 5819 5819 5819 5819 5818 5818 5818 5818 5818 5818 5817
5806 5807 5807 5807 5807 5807 5807 5806 5806 5806 5806 5807 5807 5806 5806 5806 5806 5805 5805 5805 5804 5803 5802 5802 5802 5803 5803 5803 5803 5803 5804 5805 5805 5806 5806 5807 5809 5810 5811 5811 5812 5813 5814 5815 5815 5816 5816 5816 5816 5817 5818 5819 5819 5819 5819 5820 5821 5821 5822 5822 5823 5823 5823 5823 5823 5822 5822 5821 5820 5820 5820 5820 5820 5819 5819 5819 5818 5818 5818 5818 5818 5817 5817 5817 5817
5805 5805 5805 5805 5805 5805 5804 5804 5804 5804 5804 5804 5804 5804 5803 5803 5803 5803 5802 5802 5802 5801 5800 5800 5800 5800 5800 5800 5799 5799 5800 5801 5803 5804 5804 5805 5806 5808 5808 5809 5810 5811 5812 5813 5814 5814 5815 5815 5815 5816 5817 5817 5818 5818 5818 5819 5820 5820 5821 5821 5822 5822 5823 5823 5822 5821 5821 5820 5820 5820 5820 5819 5819 5819 5819 5818 5818 5818 5818 5818 5818 5817 5817 5817 5817
5804 5803 5803 5803 5803 5802 5802 5801 5801 5801 5801 5801 5801 5800 5800 5801 5801 5800 5800 5799 5799 5798 5798 5798 5798 5797 5797 5797 5796 5796 5797 5798 5801 5802 5802 5803 5804 5806 5807 5807 5807 5808 5810 5811 5812 5813 5813 5814 5814 5814 5815 5816 5817 5817 5817 5818 5819 5819 5820 5820 5820 5821 5822 5822 5821 5820 5820 5819 5819 5819 5819 5819 5818 5818 5818 5818 5818 5818 5818 5818 5818 5818 5817 5818 5817
5801 5801 5801 5800 5799 5799 5798 5797 5797 5797 5797 5797 5797 5797 5797 5798 5798 5797 5797 5796 5796 5795 5795 5796 5796 5795 5795 5795 5794 5794 5794 5796 5798 5798 5799 5801 5802 5804 5805 5805 5805 5806 5808 5809 5811 5811 5812 5813 5813 5813 5814 5815 5815 5816 5816 5817 5817 5818 5819 5819 5820 5820 5820 5820 5820 5819 5819 5819 5819 5818 5818 5818 5818 5818 5818 5818 5818 5818 5818 5818 5818 5818 5817 5818 5818
5798 5798 5797 5795 5794 5794 5793 5792 5790 5791 5792 5792 5793 5794 5794 5795 5794 5794 5793 5793 5792 5792 5792 5793 5793 5793 5792 5793 5793 5792 5792 5793 5794 5794 5796 5798 5800 5802 5804 5804 5804 5805 5806 5808 5809 5810 5810 5811 5811 5811 5812 5813 5814 5815 5815 5815 5816 5817 5818 5818 5819 5819 5819 5819 5819 5818 5818 5818 5818 5817 5817 5817 5817 5817 5817 5817 5817 5817 5817 5818 5818 5818 5818 5818 5818
5794 5793 5791 5790 5790 5789 5789 5788 5786 5785 5786 5788 5789 5790 5790 5790 5790 5790 5789 5789 5789 5789 5789 5790 5790 5790 5789 5789 5789 5789 5789 5790 5791 5792 5793 5795 5797 5800 5802 5802 5803 5804 5805 5806 5807 5808 5808 5809 5809 5810 5810 5811 5812 5813 5813 5814 5815 5815 5816 5817 5817 5818 5818 5818 5817 5817 5817 5817 5817 5816 5816 5816 5816 5816 5816 5816 5817 5817 5817 5817 5818 5818 5818 5818 5818
5790 5789 5788 5788 5789 5789 5788 5789 5787 5785 5786 5787 5787 5787 5787 5787 5786 5786 5786 5786 5786 5786 5786 5786 5786 5786 5786 5786 5785 5786 5787 5787 5788 5789 5791 5792 5794 5797 5799 5800 5801 5802 5803 5803 5804 5805 5806 5808 5808 5808 5808 5809 5811 5811 5812 5812 5813 5814 5815 5815 5816 5816 5816 5816 5816 5816 5816 5816 5816 5816 5815 5815 5815 5816 5816 5816 5816 5816 5816 5817 5817 5817 5818 5818 5818
5787 5787 5788 5789 5789 5788 5788 5789 5789 5789 5789 5788 5787 5786 5785 5785 5784 5783 5783 5784 5784 5784 5783 5783 5784 5783 5782 5783 5782 5783 5783 5784 5785 5786 5788 5790 5792 5794 5796 5797 5798 5800 5800 5801 5802 5803 5804 5806 5806 5807 5807 5808 5809 5810 5810 5811 5811 5812 5813 5814 5814 5815 5815 5815 5815 5815 5815 5815 5815 5815 5814 5815 5815 5815 5815 5815 5815 5815 5816 5816 5816 5816 5817 5817 5817
5785 5785 5785 5785 5784 5783 5785 5786 5786 5786 5786 5786 5786 5785 5784 5783 5782 5782 5782 5783 5782 5782 5781 5781 5781 5780 5779 5779 5779 5780 5780 5781 5782 5784 5786 5788 5789 5791 5793 5795 5796 5797 5799 5800 5801 5802 5802 5804 5805 5805 5806 5806 5808 5808 5808 5809 5810 5811 5811 5812 5813 5813 5813 5814 5814 5814 5814 5814 5814 5813 5813 5814 5814 5814 5814 5814 5814 5814 5814 5814 5815 5815 5815 5816 5816
5782 5781 5779 5777 5777 5778 5780 5781 5782 5782 5782 5781 5781 5781 5781 5781 5781 5780 5781 5781 5780 5780 5779 5778 5778 5777 5777 5776 5775 5776 5777 5778 5780 5781 5784 5786 5787 5789 5791 5793 5794 5795 5797 5799 5800 5800 5801 5802 5803 5804 5804 5805 5805 5806 5807 5807 5808 5809 5810 5810 5811 5811 5812 5812 5812 5812 5812 5812 5812 5812 5812 5813 5813 5813 5813 5814 5813 5813 5813 5813 5813 5814 5814 5815 5815
5779 5778 5776 5775 5777 5778 5778 5779 5780 5781 5780 5778 5777 5777 5777 5777 5778 5778 5778 5778 5778 5777 5776 5775 5775 5774 5775 5774 5773 5774 5775 5776 5777 5780 5782 5784 5786 5788 5790 5791 5793 5794 5796 5797 5798 5799 5799 5800 5801 5802 5803 5803 5804 5805 5805 5806 5806 5807 5808 5808 5809 5809 5810 5811 5811 5811 5811 5811 5811 5811 5811 5811 5812 5812 5812 5812 5812 5812 5812 5812 5812 5813 5813 5814 5814
5777 5777 5775 5774 5775 5776 5777 5779 5780 5779 5778 5776 5775 5775 5774 5774 5774 5774 5775 5774 5774 5774 5773 5772 5772 5773 5773 5774 5773 5772 5773 5775 5777 5780 5782 5783 5784 5786 5788 5790 5791 5793 5794 5795 5796 5797 5797 5798 5799 5800 5801 5802 5803 5804 5804 5804 5805 5806 5806 5807 5807 5808 5808 5809 5810 5809 5809 5809 5809 5809 5809 5810 5810 5811 5811 5811 5811 5811 5811 5811 5812 5812 5812 5813 5813
5774 5775 5774 5772 5772 5773 5775 5776 5776 5775 5774 5773 5773 5773 5772 5772 5771 5771 5772 5772 5772 5772 5771 5770 5770 5771 5772 5772 5772 5772 5773 5774 5776 5778 5780 5780 5782 5784 5785 5787 5788 5790 5791 5792 5793 5794 5794 5796 5797 5798 5799 5801 5801 5802 5802 5803 5804 5804 5805 5805 5806 5806 5807 5808 5808 5808 5808 5808 5807 5807 5807 5808 5809 5809 5810 5810 5810 5810 5810 5810 5811 5811 5811 5812 5812
5771 5771 5772 5770 5770 5771 5772 5773 5773 5772 5771 5770 5770 5770 5770 5769 5768 5768 5769 5769 5770 5770 5770 5769 5769 5769 5770 5771 5770 5771 5771 5772 5774 5776 5778 5779 5780 5782 5782 5783 5784 5786 5788 5789 5791 5792 5792 5794 5795 5796 5798 5799 5800 5800 5800 5801 5802 5802 5803 5804 5804 5804 5805 5806 5806 5806 5806 5806 5806 5806 5806 5806 5807 5808 5808 5808 5808 5809 5809 5809 5810 5810 5810 5811 5811